Cloud_Cover
1 0 0 0 0 0 0 0 0 0 0 0 0 0 1 93 80 100 100 100 100 94
1 0 0 0 0 0 0 0 0 0 0 0 0 0 5 37 12 5 5 92 100 100
5 5 1 0 0 0 0 0 0 0 0 0 0 1 4 3 4 2 4 5 23 92
5 3 3 5 5 0 0 0 1 0 2 5 0 1 23 16 2 2 3 6 0 0
1 2 4 5 6 5 5 4 0 0 2 4 0 92 8 0 0 0 9 0 0 0
0 0 0 0 0 0 1 5 5 5 2 0 1 5 5 5 1 0 0 0 0 5
1 2 0 1 2 0 0 0 4 4 5 0 0 1 2 3 45 82 36 28 24 6
11 2 1 0 0 0 0 0 0 0 0 0 0 0 0 0 11 30 50 70 41 38
0 0 1 3 3 3 3 6 5 5 3 0 0 0 0 0 10 3 8 18 52 59
0 0 5 5 5 39 5 86 100 10 8 1 0 0 3 4 0 3 8 8 5 9
1 4 22 100 96 47 100 96 86 26 0 0 0 0 0 0 3 1 0 2 41 88
67 52 100 100 49 67 92 97 100 4 5 0 0 0 0 0 0 0 4 5 100 100
76 97 93 67 100 100 94 76 75 70 9 5 5 0 0 18 0 0 4 99 100 100
100 100 98 80 100 85 100 100 100 100 23 5 5 4 2 25 7 26 10 99 100 100